Date,TemperatureHighF,TemperatureAvgF,TemperatureLowF,DewpointHighF,DewpointAvgF,DewpointLowF,HumidityHigh,HumidityAvg,HumidityLow,PressureMaxIn,PressureMinIn,WindSpeedMaxMPH,WindSpeedAvgMPH,GustSpeedMaxMPH,PrecipitationSumIn
2013-4-1,54.7,43.7,33.4,35.0,30.5,25.6,81,60,41,30.06,29.89,14,4,21,0.02
2013-4-2,40.0,37.4,35.8,34.0,32.8,30.8,91,83,73,30.14,29.96,5,1,10,0.12
2013-4-3,61.2,46.4,35.8,38.7,31.9,25.5,92,64,27,30.17,29.92,9,1,15,0.03
2013-4-4,69.3,53.7,35.3,32.0,29.3,27.2,76,43,22,30.11,29.78,13,2,17,0.00
2013-4-5,73.3,59.4,47.8,35.5,28.5,25.1,53,33,19,29.79,29.45,23,3,38,0.00
2013-4-6,65.5,55.1,45.1,34.6,26.5,22.0,49,34,23,29.81,29.60,15,3,22,0.00
2013-4-7,64.5,53.8,41.1,36.2,30.3,24.5,76,43,23,29.72,29.49,18,4,28,0.00
2013-4-8,67.7,46.8,25.2,36.1,29.2,21.6,86,54,22,29.78,29.18,20,4,34,0.00
2013-4-9,25.2,15.7,10.5,21.9,11.9,6.5,88,85,81,30.49,29.74,15,6,25,0.00
2013-4-10,26.9,18.3,8.0,15.1,10.3,4.2,85,72,56,30.46,30.02,10,2,15,0.02
2013-4-11,55.8,38.2,21.6,35.1,25.9,14.8,82,64,35,30.02,29.73,12,2,21,0.02
2013-4-12,59.7,42.4,31.9,34.9,30.6,22.2,83,65,25,29.96,29.72,21,3,29,0.01
2013-4-13,70.0,50.5,30.2,35.2,27.6,18.7,89,50,17,29.85,29.18,14,3,23,0.00
2013-4-14,49.2,42.3,33.6,37.8,23.0,10.4,91,52,22,29.72,29.27,18,5,31,0.27
2013-4-15,38.9,29.9,22.6,25.4,21.6,13.6,90,74,36,30.13,29.61,16,3,21,0.00
2013-4-16,35.1,28.5,22.5,30.6,25.1,20.0,92,87,76,30.15,29.89,12,2,17,0.25
2013-4-17,31.2,26.2,19.2,28.7,23.8,16.7,93,91,89,30.30,29.95,13,3,24,0.01
2013-4-18,36.4,26.6,15.4,18.8,14.5,10.4,90,63,40,30.33,30.21,9,1,14,0.08
2013-4-19,54.7,41.5,25.8,26.6,18.5,11.3,64,41,27,30.22,29.85,12,2,20,0.00
2013-4-20,58.5,47.3,34.7,35.6,29.6,23.0,73,52,32,29.91,29.75,10,2,20,0.01
2013-4-21,63.3,50.7,38.3,33.7,28.5,22.0,76,46,24,30.00,29.79,12,2,16,0.00
2013-4-22,53.2,34.4,22.0,36.4,27.0,19.5,90,76,50,30.40,29.74,19,3,31,0.01
2013-4-23,34.8,26.3,19.9,21.8,18.8,17.2,91,75,50,30.44,30.25,8,1,13,0.33
2013-4-24,55.5,39.9,25.0,24.3,18.7,13.7,74,46,21,30.29,30.09,11,2,16,0.01
2013-4-25,65.7,50.1,33.3,31.0,23.1,14.8,62,38,17,30.12,29.76,9,1,12,0.00
2013-4-26,67.8,54.5,37.1,28.6,25.3,20.8,67,35,19,30.05,29.82,10,2,15,0.00
2013-4-27,74.5,60.3,43.4,29.8,25.4,20.4,55,30,15,30.04,29.78,11,2,15,0.00
2013-4-28,79.3,63.7,43.5,35.1,29.4,23.0,52,30,16,29.81,29.53,12,3,20,0.00
2013-4-29,81.1,67.3,49.0,36.3,32.0,26.3,56,30,16,29.62,29.28,16,2,22,0.00
2013-4-30,65.9,51.6,38.6,40.7,34.0,26.4,86,53,23,29.94,29.28,16,3,25,0.00